Main page
METAR-TAF:

METAR-TAF

Airports :

Defence School of Transport

Leconfield, England

latitude: 53-52-37N, longitude: 0-26-15W, elevation: 7 m

Current weather observation

The report was made 36 minutes ago, at 21:50 UTC
Wind 9 kt from the South with gusts up to 19 kt
Temperature 15°C
Humidity 48%
Pressure 1007 hPa
Visibility 10 km or more

METAR: EGXV 052150Z AUTO 17009G19KT 9999 NCD 15/04 Q1007

Time: 23:26 (22:26 UTC)


TAF: missing

Weather observations and forecasts of more than 4000 airports (METAR and TAF reports).

The available stations are represented by yellow and red dots on the map.

Hover mouse over dot to see the name of the station.

Then click to see weather observations and forecasts.

To change the map : click on the green buttons with a black cross to zoom in, on the green button with a dash to zoom out, or on the green arrows for adjacent maps.


METAR-TAF: